Tracking 25949 objects as of 9-Aug-2022
HD Live streaming from Space Station
objects crossing your sky now

STARLINK-4256

Track STARLINK-4256 now!
10-day predictions
STARLINK-4256 is classified as:


NORAD ID: 52994
Int'l Code: 2022-076J
Perigee: 355.2 km
Apogee: 358.6 km
Inclination: 53.2 °
Period: 91.5 minutes
Semi major axis: 6727 km
RCS: Unknown
Launch date: July 7, 2022
Source: United States (US)
Launch site: AIR FORCE EASTERN TEST RANGE (AFETR)
aabbcc
Your satellite tracking list
Your tracking list is empty




NASA's NSSDC Master Catalog

Two Line Element Set (TLE):
1 52994U 22076J   22221.25001157 -.00059936  00000-0 -42567-3 0  9997
2 52994  53.2178 217.7588 0002516  16.1750  87.8199 15.73195418  5640
Source of the keplerian elements: AFSPC